Flight Track Log - Related Links

Times and Time Zones

All times are in EDT time to prevent confusion due to time zone crossing. See the N319EE flight status page for this flight to view local times or setup timezone preferences in your user account.

Time Position Orientation Groundspeed Altitude Reporting Facility
EDT Latitude Longitude Course Direction KTS MPH feet Rate Location/Type
06:11AM 42.1814 -76.0167 312° West 151 174 4,500  Level Cleveland Center
06:12AM 42.2236 -76.0811 312° West 203 234 6,100 1,525 Climbing Cleveland Center
06:13AM 42.2508 -76.1483 299° West 204 235 7,600 942 Climbing Cleveland Center
06:14AM 42.2758 -76.2228 294° West 213 245 8,000 198 Climbing Cleveland Center
06:15AM 42.3064 -76.3114 295° West 249 287 8,000 639 Level Cleveland Center
06:16AM 42.3372 -76.4072 294° West 254 292 9,300 984 Climbing Cleveland Center
06:17AM 42.3636 -76.4881 294° West 237 273 10,000 344 Climbing Cleveland Center
06:18AM 42.3944 -76.5825 294° West 272 313 10,000  Level Cleveland Center
06:19AM 42.4275 -76.6806 295° West 285 328 10,000  Level Cleveland Center
06:20AM 42.4603 -76.7772 295° West 284 327 10,000  Level Cleveland Center
06:21AM 42.5208 -76.8494 319° Northwest 290 334 10,000  Level Cleveland Center
06:22AM 42.5803 -76.9211 318° Northwest 287 330 10,000  Level Cleveland Center
06:22AM 42.5925 -76.9347 321° Northwest 288 331 10,000  Level Cleveland Center
06:23AM 42.6386 -76.9936 317° Northwest 286 329 10,000  Level Cleveland Center
06:23AM 42.6506 -77.0067 321° Northwest 284 327 10,000  Level Cleveland Center
06:24AM 42.6939 -77.0622 317° Northwest 275 316 10,000  Level Cleveland Center
06:24AM 42.7047 -77.0750 319° Northwest 265 305 10,000 -590 Level Cleveland Center
06:25AM 42.7583 -77.1433 317° Northwest 267 307 9,400 -727 Descending Cleveland Center
06:25AM 42.7681 -77.1544 320° Northwest 268 308 9,200 -885 Descending Cleveland Center
06:26AM 42.8158 -77.2147 317° Northwest 279 321 8,500 -885 Descending Cleveland Center
06:26AM 42.8275 -77.2303 316° Northwest 286 329 8,300 -885 Descending Cleveland Center
06:27AM 42.8728 -77.2867 318° Northwest 281 323 7,600 -885 Descending Cleveland Center
06:27AM 42.8856 -77.3000 323° Northwest 279 321 7,400 -1,279 Descending Cleveland Center
06:28AM 42.9281 -77.3558 316° Northwest 275 316 6,300 -1,300 Descending Cleveland Center
06:28AM 42.9411 -77.3719 318° Northwest 273 314 6,100 -1,180 Descending Cleveland Center
06:29AM 42.9803 -77.4217 317° Northwest 263 303 5,100 -1,279 Descending Cleveland Center
06:30AM 42.9919 -77.4344 321° Northwest 253 291 4,800 -1,279 Descending Cleveland Center
06:30AM 43.0314 -77.4853 317° Northwest 252 290 3,800 -1,377 Descending Cleveland Center
06:31AM 43.0458 -77.5033 318° Northwest 249 287 3,400 -1,082 Descending Cleveland Center
06:31AM 43.0781 -77.5439 317° Northwest 239 275 2,700 -1,100 Descending Cleveland Center
06:32AM 43.0889 -77.5581 316° Northwest 197 227 2,300 -1,082 Descending Cleveland Center
06:32AM 43.1136 -77.5917 315° West 197 227 1,600 -806 Descending Cleveland Center
06:33AM 43.1247 -77.6053 318° Northwest 151 174 1,400 -590 Descending Cleveland Center
06:33AM 43.1281 -77.6353 279° West 159 183 1,000 -700 Descending Cleveland Center
06:34AM 43.1222 -77.6539 247° West 114 131 700 -492 Descending Cleveland Center
06:34AM 43.1125 -77.6808 244° Southwest 141 162 500 -250 Descending Cleveland Center
06:36AM 43.1167 -77.6667 324° Northwest  Level FlightAware Approximate

Login

Don't have an account? Register now (free) for customized features, flight alerts, and more!